This demonstration page uses our WeatherBlox Daily Observations layout. Learn more.

Left ArrowRight Arrow

39.92423, -83.80882

Hourly Observations for May 27, 2019

Temp ( °F °C ) Dew Point ( °F °C ) Humidity (%) Winds ( mph kmh ) Pressure ( in mb ) Visibility ( mi km ) Precip ( " mm )
12:56 am 00:56 Clear 65 18.3 64 17.8 97 97 NW 3 6 30.05 1018 10 16 N/A
1:56 am 01:56 Clear 63 17.2 63 17.2 100 100 N N/A 30.04 1017 10 16 N/A
2:56 am 02:56 Clear 63 17.2 63 17.2 100 100 N N/A 30.03 1017 10 16 N/A
3:56 am 03:56 Clear 62 16.7 62 16.7 100 100 W 3 6 30.03 1017 10 16 N/A
4:56 am 04:56 Clear with Mist and Fog 61 16.1 61 16.1 100 100 NNW 3 6 30.04 1017 3 5 N/A
5:08 am 05:08 Partly Cloudy 61 16 61 16 100 100 N 3 6 30.05 1018 10 16 N/A
5:14 am 05:14 Mostly Cloudy 61 16 61 16 100 100 NE 5 7 30.04 1017 10 16 N/A
5:29 am 05:29 Cloudy with Mist and Fog 63 17 63 17 100 100 NE 5 7 30.03 1017 3 5 N/A
5:34 am 05:34 Cloudy with Mist and Fog 63 17 63 17 100 100 NE 6 9 30.03 1017 2 3 N/A
5:43 am 05:43 Cloudy with Mist and Fog 63 17 63 17 100 100 NE 5 7 30.03 1017 1 1 N/A
5:56 am 05:56 Cloudy with Mist and Fog 62 16.7 62 16.7 100 100 NE 6 9 30.04 1017 2 2 N/A
6:04 am 06:04 Cloudy with Mist and Fog 63 17 63 17 100 100 NE 6 9 30.04 1017 3 4 N/A
6:17 am 06:17 Cloudy with Mist and Fog 63 17 63 17 100 100 N N/A 30.05 1018 3 5 N/A
6:43 am 06:43 Cloudy with Mist and Fog 63 17 63 17 100 100 N 5 7 30.06 1018 4 6 N/A
6:56 am 06:56 Cloudy with Mist and Fog 63 17.2 63 17.2 100 100 N 6 9 30.07 1018 4 6 N/A
7:17 am 07:17 Cloudy 63 17 63 17 100 100 N 5 7 30.07 1018 7 11 N/A
7:56 am 07:56 Cloudy 64 17.8 64 17.8 100 100 NE 6 9 30.08 1019 8 13 N/A
8:56 am 08:56 Cloudy 64 17.8 63 17.2 96 96 NNE 5 7 30.08 1019 10 16 N/A
9:56 am 09:56 Cloudy 64 17.8 62 16.7 93 93 VRB 3 6 30.09 1019 10 16 N/A
10:56 am 10:56 Cloudy 65 18.3 63 17.2 93 93 E 6 9 30.07 1018 10 16 N/A
11:56 am 11:56 Cloudy 68 20 63 17.2 84 84 E 7 11 30.07 1018 10 16 N/A
12:52 pm 12:52 Partly Cloudy 72 22 64 18 78 78 S 3 6 30.02 1017 10 16 N/A
12:56 pm 12:56 Mostly Sunny 71 21.7 64 17.8 79 79 SW 3 6 30.05 1018 10 16 N/A
1:56 pm 13:56 Mostly Sunny 75 23.9 66 18.9 74 74 VRB 6 9 30.02 1017 10 16 N/A
2:56 pm 14:56 Mostly Cloudy 77 25 65 18.3 66 66 VRB 6 9 29.99 1016 10 16 N/A
3:56 pm 15:56 Partly Cloudy 79 26.1 64 17.8 60 60 SW 8 13 29.95 1014 10 16 N/A
4:56 pm 16:56 Mostly Cloudy 79 26.1 64 17.8 60 60 S 7 11 29.92 1013 10 16 N/A
5:56 pm 17:56 Mostly Cloudy 76 24.4 67 19.4 74 74 SW 9 15 29.92 1013 8 13 N/A
6:56 pm 18:56 Partly Cloudy 75 23.9 68 20 79 79 SSW 7 11 29.88 1012 10 16 N/A
7:56 pm 19:56 Sunny 74 23.3 68 20 82 82 SSE 7 11 29.86 1011 10 16 N/A
8:56 pm 20:56 Clear 73 22.8 67 19.4 81 81 SSE 9 15 29.83 1010 10 16 N/A
9:56 pm 21:56 Mostly Cloudy 73 22.8 69 20.6 87 87 SSE 9 15 29.83 1010 10 16 N/A
10:25 pm 22:25 Mostly Cloudy with Nearby Thunderstorms 73 23 70 21 89 89 SSE 9 15 29.78 1008 10 16 N/A
10:48 pm 22:48 Mostly Cloudy with Nearby Thunderstorms 73 23 70 21 89 89 S 7 11 29.79 1009 10 16 N/A
10:56 pm 22:56 Mostly Cloudy with Nearby Thunderstorms 73 22.8 69 20.6 87 87 S 7 11 29.82 1010 10 16 N/A
11:49 pm 23:49 Cloudy with Strong Thunderstorms 66 19 66 19 100 100 VRB 5 7 29.86 1011 3 4 0.30 7.62
11:56 pm 23:56 Cloudy with Strong Thunderstorms 66 18.9 66 18.9 100 100 VRB 3 6 29.84 1010 3 4 0.36 9.14

Powered by AerisWeather